Showing default

LYRA-3, 64577

Orbit data source: Space-Track

LYRA-3, 64577 is a payload satellite owned by Echostar AU (AU) in SSO that was launched on Mon, 23 Jun 2025 UTC via an FALCON 9 launch vehicle from the Air Force Western Test Range (AFWTR). Payload-class satellites include a variety of spacecraft equipped with specific instruments for various scientific and technological missions. These include communications satellites like Starlink; space stations such as the ISS; scientific satellites like the Hubble; Earth observation satellites from companies like Planet Labs, Umbra, and HawkEye 360; GPS; miniature CubeSats for education and research; and military/defense satellites.

Loading next visibility...
Identifier
64577, 2025-135BB
Orbit
SSO
Country
Flag of AUAU / AUS
Related business
Manufacturer
Astro Digital
Mission
Operational Commercial Communications
Bus & Motor
CORVUS XL, Unknown motor
Mass
74 kg wet, 74 kg dry
Launch date (UTC)
2025-06-23 (11 months ago)
Launch vehicle
FALCON 9
Launch site
Air Force Western Test Range (AFWTR)
Object type
Payload
Rocket body
Debris
Shape & HBR
Box, 1.0 m
Radar Cross Section
0.425 m², Medium (>0.1 m² and < 1m²)

Expand to show TLE details & history
Last TLE update: 14 hours ago

TLE from 14 hours ago
0 LYRA-3
1 64577U 25135BB  26133.00771370  .00000924  00000-0  14611-3 0  9996
2 64577  97.7702 239.4424 0022356  96.1737 264.2020 14.74379031 48087
Epoch: 2026-05-13T00:11Z
TLE epoch observation values (Epoch: 2026-05-13T00:11:06.463Z)
Latitude
-0.00004°
Longitude
5.89156°
Altitude
651.763 km
Speed
7.531 km/s
True Right ascension
15h 57m 46s
True Declination
0° 00' 00"
Sunlit
Object was in full shadow at epoch
Visualization orbit readout
Latitude
Unknown
Longitude
Unknown
Altitude
Unknown
Speed
Unknown
Apparent Right ascension
Unknown
Apparent Declination
Unknown
Sunlit
N/A
Visualization observer readout
Local Sidereal Time
22:06:28
Azimuth
Unknown
Elevation
Unknown
Doppler factor
Unknown
Orbital elements
Apogee altitude
659.865 km
Perigee altitude
628.467 km
Semi-major axis
7,022.303 km
Eccentricity
0.00224
Inclination
97.7702°
RAAN
239.4424°
Arg. of periapsis
96.1737°
True anomaly
263.9472°
Mean anomaly
264.202°
Eccentric anomaly
264.07459°
Mean motion
3.68828 °/min
Orbital period
97.61 mins
BSTAR
0.00014611
Loading maneuver chart data...
Computing Atmospheric mass density...
Loading historical data...
Loading historical data...
Loading historical data...
Loading historical data...
Loading historical data...
Loading historical data...
Loading historical data...

Documentation

Showing up to 5 results
|